KC1RCJ Weather Reports


Display with metric or nautical units.
time (UTC)temp
F
wind
direction
speed
MPH
gust
MPH
rain 1hr
in
rain 24hr
in
rain mn
in
humidity
%
barometer
mb
20260902043038 56 0 0.0 2.0 0.00 0.00 0.00 92 1020.7
20260902041537 57 322 1.0 3.0 0.00 0.00 0.00 92 1020.5
20260902040038 57 0 0.0 2.0 0.00 0.00 0.00 92 1020.4
20260902034537 57 323 0.0 3.0 0.00 0.00 0.00 92 1020.4
20260902033036 57 0 0.0 1.0 0.00 0.00 0.00 91 1020.4
20260902031621 57 0 0.0 3.0 0.00 0.00 0.00 91 1020.2
20260902030033 57 0 0.0 0.0 0.00 0.00 0.00 90 1020.1
20260902024539 57 0 0.0 0.0 0.00 0.00 0.00 89 1020.1
20260902023041 58 180 0.0 2.0 0.00 0.00 0.00 88 1020.1
20260902021533 58 180 0.0 2.0 0.00 0.00 0.00 88 1020.1
20260902020038 58 180 1.0 2.0 0.00 0.00 0.00 86 1020.0
20260902014536 59 0 0.0 1.0 0.00 0.00 0.00 85 1020.0
20260902013035 60 180 0.0 1.0 0.00 0.00 0.00 85 1020.0
20260902011536 59 0 0.0 0.0 0.00 0.00 0.00 84 1019.7
20260902010034 59 180 1.0 2.0 0.00 0.00 0.00 83 1019.8
20260902004537 60 0 0.0 0.0 0.00 0.00 0.00 81 1019.8
20260902003040 60 0 0.0 2.0 0.00 0.00 0.00 81 1019.8
20260902001551 60 180 0.0 1.0 0.00 0.00 0.00 80 1019.6
20260902000037 61 0 0.0 3.0 0.00 0.00 0.00 79 1019.7
20260901234533 61 0 0.0 2.0 0.00 0.00 0.00 78 1019.7
20260901233035 62 180 4.0 6.0 0.00 0.00 0.00 78 1019.6
20260901231535 62 226 3.0 5.0 0.00 0.00 0.00 78 1019.3
20260901230033 63 233 2.0 6.0 0.00 0.00 0.00 77 1019.1
20260901224536 63 177 3.0 9.0 0.00 0.00 0.00 76 1018.9
20260901223041 64 178 7.0 10.0 0.00 0.00 0.00 75 1019.1
20260901221545 64 161 7.0 12.0 0.00 0.00 0.00 72 1019.1
20260901220039 65 160 7.0 12.0 0.00 0.00 0.00 72 1019.0
20260901214533 65 191 7.0 13.0 0.00 0.00 0.00 72 1018.8
20260901213032 65 159 7.0 14.0 0.00 0.00 0.00 73 1018.6
20260901211533 66 221 8.0 14.0 0.00 0.00 0.00 71 1018.6
20260901210035 67 186 8.0 14.0 0.00 0.00 0.00 70 1018.3
20260901204536 67 204 8.0 15.0 0.00 0.00 0.00 69 1018.2
20260901203036 67 160 9.0 17.0 0.00 0.00 0.00 68 1018.3
20260901201536 68 177 7.0 13.0 0.00 0.00 0.00 68 1018.2
20260901200039 68 201 8.0 17.0 0.00 0.00 0.00 66 1018.3
20260901194536 68 194 8.0 15.0 0.00 0.00 0.00 66 1018.3
20260901193034 67 174 11.0 18.0 0.00 0.00 0.00 67 1018.2
20260901191551 68 165 10.0 17.0 0.00 0.00 0.00 65 1018.2
20260901190035 69 167 10.0 14.0 0.00 0.00 0.00 64 1018.2
20260901184544 69 199 9.0 15.0 0.00 0.00 0.00 65 1018.2
20260901183045 69 170 9.0 16.0 0.00 0.00 0.00 66 1018.1
20260901181535 68 212 8.0 14.0 0.00 0.00 0.00 67 1018.0
20260901180034 68 171 9.0 16.0 0.00 0.00 0.00 67 1018.0
20260901174534 68 161 9.0 19.0 0.00 0.00 0.00 67 1018.0
20260901173045 68 183 10.0 17.0 0.00 0.00 0.00 67 1018.1
20260901171533 68 179 8.0 13.0 0.00 0.00 0.00 71 1018.0
20260901170035 68 142 7.0 15.0 0.00 0.00 0.00 72 1018.0
20260901164543 67 188 6.0 11.0 0.00 0.00 0.00 74 1018.1
20260901163035 67 190 7.0 12.0 0.00 0.00 0.00 76 1018.0
20260901161549 65 153 9.0 11.0 0.00 0.00 0.00 80 1018.3
20260901160034 67 36 2.0 3.0 0.00 0.00 0.00 75 1018.3
20260901154550 66 0 0.0 2.0 0.00 0.00 0.00 77 1018.2
20260901153041 65 36 1.0 2.0 0.00 0.00 0.00 80 1018.3
20260901151536 64 36 1.0 4.0 0.00 0.00 0.00 80 1018.5
20260901150041 64 59 1.0 2.0 0.00 0.00 0.00 78 1018.5
20260901144541 64 59 2.0 3.0 0.00 0.00 0.00 79 1018.5
20260901143042 63 0 0.0 3.0 0.00 0.00 0.00 78 1018.6
20260901141545 63 101 3.0 6.0 0.00 0.00 0.00 78 1018.5
20260901140037 63 58 2.0 3.0 0.00 0.00 0.00 79 1018.7
20260901134534 63 0 0.0 0.0 0.00 0.00 0.00 76 1018.5
20260901133035 63 0 0.0 0.0 0.00 0.00 0.00 78 1018.3
20260901131537 62 0 0.0 0.0 0.00 0.00 0.00 80 1018.3
20260901130036 62 0 0.0 0.0 0.00 0.00 0.00 80 1018.2
20260901124540 61 0 0.0 0.0 0.00 0.00 0.00 82 1018.4
20260901123035 61 0 0.0 0.0 0.00 0.00 0.00 84 1018.2
20260901121537 59 0 0.0 3.0 0.00 0.00 0.00 87 1018.4
20260901120038 59 58 2.0 4.0 0.00 0.00 0.00 88 1018.2
20260901114541 58 70 3.0 5.0 0.00 0.00 0.00 89 1018.0
20260901113036 57 71 3.0 5.0 0.00 0.00 0.00 90 1017.8
20260901111538 57 65 3.0 5.0 0.00 0.00 0.00 90 1017.8
20260901110038 57 29 4.0 6.0 0.00 0.00 0.00 90 1017.8
20260901104536 56 273 2.0 3.0 0.00 0.00 0.00 92 1017.5
20260901103036 55 273 0.0 3.0 0.00 0.00 0.00 93 1017.4
20260901101533 54 273 1.0 2.0 0.00 0.00 0.00 93 1017.3
20260901100036 54 0 0.0 1.0 0.00 0.00 0.00 93 1017.4
20260901094540 54 273 1.0 2.0 0.00 0.00 0.00 92 1017.4
20260901093033 54 0 0.0 0.0 0.00 0.00 0.00 93 1017.3
20260901091538 54 0 0.0 2.0 0.00 0.00 0.00 92 1017.4
20260901090035 54 273 0.0 3.0 0.00 0.00 0.00 92 1017.5
20260901084542 54 273 1.0 3.0 0.00 0.00 0.00 92 1017.4
20260901083037 54 0 0.0 2.0 0.00 0.00 0.00 92 1017.6
20260901081536 54 273 1.0 2.0 0.00 0.00 0.00 91 1017.5
20260901080034 54 273 0.0 2.0 0.00 0.00 0.00 91 1017.6
20260901074539 54 273 0.0 2.0 0.00 0.00 0.00 90 1017.6
20260901073033 54 273 2.0 3.0 0.00 0.00 0.00 90 1017.5
20260901071537 54 0 0.0 3.0 0.00 0.00 0.00 89 1017.6
20260901070037 55 0 0.0 3.0 0.00 0.00 0.00 88 1017.6
20260901064536 55 0 0.0 5.0 0.00 0.00 0.00 88 1017.7
20260901063035 54 265 1.0 3.0 0.00 0.00 0.00 90 1017.7
20260901061536 54 0 0.0 0.0 0.00 0.00 0.00 89 1017.6
20260901060034 54 0 0.0 0.0 0.00 0.00 0.00 88 1017.4
20260901054535 55 0 0.0 0.0 0.00 0.00 0.00 88 1017.4
20260901053036 55 0 0.0 0.0 0.00 0.00 0.00 88 1017.5
20260901051542 55 0 0.0 0.0 0.00 0.00 0.00 88 1017.6
20260901050038 55 265 1.0 3.0 0.00 0.00 0.00 87 1017.6
20260901044552 55 265 1.0 3.0 0.00 0.01 0.00 85 1017.8